{"data":{"norad_id":37153,"epoch":"2026-09-20T03:12:44.981280Z","epoch_age_seconds":57333,"freshness":"FRESH","line1":"1 37153U 10043B   26263.13385395  .00000080  00000+0  52139-3 0  9993","line2":"2 37153  82.4621  19.2576 0006954 231.9615 128.0836 12.40794358726146","mean_motion":12.40794358,"eccentricity":0.0006954,"inclination_deg":82.4621,"raan_deg":19.2576,"arg_perigee_deg":231.9615,"mean_anomaly_deg":128.0836,"bstar":0.00052139,"rev_number":72614,"period_min":116.05468631572,"perigee_km":1497.7568567163,"apogee_km":1508.7182724607,"semimajor_km":7881.3745645885,"source":"CELESTRAK","updated_at":"2026-09-20T09:00:13.757025Z"}}